Home   Weather   Coeur d'Alene   Past weeks

Flag for USA Past Weather in Coeur d'Alene, Idaho, USA — Yesterday and Last 2 Weeks

46 °F


Feels Like: 40 °F
Forecast: 42 / 63 °F
Wind: 15 mph from Northeast

Location: Coeur d'Alene Weather Reporting System

Current Time: Oct 24, 2016 at 12:02:41 AM

Latest Report: Oct 23, 2016 at 10:56 PM

Visibility: 10 mi

Pressure: 30.03 "Hg (27.73 "Hg at 655m altitude)

Humidity: 79%

Dew Point: 40 °F

Location of Coeur d'AleneLocation

Past Weather in Coeur d'Alene — Graph


Coeur d'Alene Temperature Yesterday

Maximum temperature yesterday: 51 °F (at 2:56 PM)
Minimum temperature yesterday: 38 °F (at 3:56 AM)
Average temperature yesterday: 44 °F

High & Low Weather Summary for the Past Weeks

High60 °F (Oct 8, 10:56 PM)100% (Oct 21, 4:56 AM)30.50 "Hg (Oct 21, 4:56 AM)
Low33 °F (Oct 11, 5:56 AM)37% (Oct 12, 2:56 PM)29.44 "Hg (Oct 15, 9:56 PM)
Average47 °F81%29.94 "Hg
* Reported Oct 8 10:56 PM — Oct 23 10:56 PM, Coeur d'Alene, Weather by CustomWeather, © 2016

Note: Actual official high and low records may vary slightly from our data, if they occured in-between our weather recording intervals... More about our weather records


Coeur d'Alene Weather History for the Previous 24 Hours

Scroll right to see more
Time TempWeatherWind HumidityBarometerVisibility
10:56 PM
Sun, Oct 23
46 °FClear.15 mph79%30.03 "Hg10 mi
9:56 PM47 °FPassing clouds.16 mph77%30.03 "Hg10 mi
8:56 PM46 °FClear.14 mph79%30.04 "Hg10 mi
7:56 PM46 °FClear.14 mph79%30.05 "Hg10 mi
6:56 PM47 °FClear.16 mph77%30.06 "Hg10 mi
5:56 PM48 °FClear.15 mph77%30.06 "Hg10 mi
4:56 PM49 °FSunny.15 mph74%30.07 "Hg10 mi
3:56 PM51 °FSunny.14 mph66%30.07 "Hg10 mi
2:56 PM51 °FPartly sunny.12 mph69%30.07 "Hg10 mi
1:56 PM50 °FSunny.12 mph71%30.09 "Hg10 mi
12:56 PM50 °FScattered clouds.12 mph71%30.09 "Hg10 mi
11:56 AM48 °FPartly sunny.14 mph74%30.11 "Hg10 mi
10:56 AM45 °FPartly sunny.16 mph80%30.11 "Hg10 mi
9:56 AM43 °FPartly sunny.13 mph82%30.11 "Hg10 mi
8:56 AM41 °FOvercast.12 mph86%30.10 "Hg10 mi
7:56 AM38 °FSunny.8 mph93%30.09 "Hg10 mi
6:56 AM39 °FClear.12 mph89%30.07 "Hg10 mi
5:56 AM38 °FClear.9 mph93%30.06 "Hg10 mi
4:56 AM38 °FClear.8 mph93%30.06 "Hg10 mi
3:56 AM38 °FClear.9 mph93%30.05 "Hg10 mi
2:56 AM40 °FClear.9 mph86%30.04 "Hg10 mi
1:56 AM39 °FClear.10 mph93%30.04 "Hg10 mi
12:56 AM39 °FClear.9 mph93%30.06 "Hg10 mi
Weather by CustomWeather, © 2016

See weather overviewHow to use our weather pages